Regional Weather Roundup
Issued by NWS

Home | Current Version | Previous Version | Text Only | Print | Product List | Glossary Off
Versions: 1 2 3 4 5 6 7 8 9 10 11 12 13 14 15 16 17 18 19 20 21 22 23 24 25 26 27 28 29 30 31 32 33 34 35 36 37 38 39 40 41 42 43 44 45 46 47 48 49 50

000
ASUS43 KTOP 290008
RWRKS

WEATHER ROUNDUP FOR KANSAS
NATIONAL WEATHER SERVICE GOODLAND KS
700 PM CDT THU AUG 28 2014

NOTE:  "FAIR" INDICATES FEW OR NO CLOUDS BELOW 12,000 FEET WITH NO
SIGNIFICANT WEATHER AND/OR OBSTRUCTIONS TO VISIBILITY.

KSZ001>006-013>018-027>032-041>047-290100-
NORTHWEST KANSAS

CITY           SKY/WX    TMP DP  RH WIND       PRES   REMARKS
GOODLAND       MOSUNNY   74  55  51 NW20G26   29.98R
6HR MIN TEMP:  74; 6HR MAX TEMP:  81;

HAYS           MOSUNNY   82  63  51 W8        29.85S
HILL CITY      SUNNY     82  63  52 S3        29.86F
6HR MIN TEMP:  73; 6HR MAX TEMP:  83;

RUSSELL        TSTM      69  62  78 SE23G35   29.84R
6HR MIN TEMP:  68; 6HR MAX TEMP:  85; 6HR PCP:  0.40;

$$

KSZ061>065-074>080-084>089-290100-
SOUTHWEST KANSAS

CITY           SKY/WX    TMP DP  RH WIND       PRES   REMARKS
DODGE CITY     PTSUNNY   84  60  44 N3        29.90R
6HR MIN TEMP:  79; 6HR MAX TEMP:  85;

ELKHART          N/A     81  48  31 W6          N/A
GARDEN CITY    TSTM      73  66  78 N9        29.92S
6HR MIN TEMP:  73; 6HR MAX TEMP:  83; 6HR PCP:  0.08;

GREAT BEND     PTSUNNY   75  66  73 S8        29.86R THUNDER
LIBERAL        MOSUNNY   84  59  42 N13       29.93R
PRATT          CLOUDY    79  64  61 SE12      29.88F
$$

KSZ066>073-081>083-090>101-290100-
SOUTHEAST KANSAS

CITY           SKY/WX    TMP DP  RH WIND       PRES   REMARKS
CHANUTE        SUNNY     90  59  35 S15       29.88F
6HR MIN TEMP:  89; 6HR MAX TEMP:  94;

COFFEYVILLE    SUNNY     90  60  36 S12       29.87F
6HR MIN TEMP:  89; 6HR MAX TEMP:  95;

HUTCHINSON     PTSUNNY   78  66  66 SE15      29.86F
6HR MIN TEMP:  72; 6HR MAX TEMP:  84; 6HR PCP: TRACE;

MEDICINE LODGE   N/A     78  70  76 S12G20    29.90R
NEWTON         PTSUNNY   77  63  61 S13G20    29.91F
PARSONS        SUNNY     89  60  37 S7        29.89F
6HR MIN TEMP:  88; 6HR MAX TEMP:  95;

WICHITA INTL   CLOUDY    77  66  68 S10       29.87F
6HR MIN TEMP:  73; 6HR MAX TEMP:  77; 6HR PCP:  0.08;

WICHITA JABRA  CLOUDY    77  65  66 S9        29.88S
6HR MIN TEMP:  74; 6HR MAX TEMP:  83; 6HR PCP:  0.05;

WICHITA MCCONL MOSUNNY   76  69  79 SE7       29.88F
WINFIELD       CLOUDY    74  69  85 E6        29.89F
6HR MIN TEMP:  71; 6HR MAX TEMP:  94; 6HR PCP:  0.28;

$$

KSZ007>012-019>026-033>040-048>060-102>105-290100-
NORTHEAST KANSAS

CITY           SKY/WX    TMP DP  RH WIND       PRES   REMARKS
CONCORDIA      PTSUNNY   79  69  71 S12       29.84S
6HR MIN TEMP:  75; 6HR MAX TEMP:  80;

EMPORIA        CLOUDY    84  67  56 S8        29.85S
6HR MIN TEMP:  84; 6HR MAX TEMP:  94;

LAWRENCE       SUNNY     93  64  38 S9        29.83F
6HR MIN TEMP:  92; 6HR MAX TEMP:  99;

MANHATTAN      CLOUDY    79  71  76 SE3       29.83F
6HR MIN TEMP:  75; 6HR MAX TEMP:  81; 6HR PCP:  0.01;

MARYSVILLE     CLOUDY    77  72  83 CALM      29.85S
OLATHE IND     CLEAR     88  66  48 SE13      29.87F
6HR MIN TEMP:  88; 6HR MAX TEMP:  95;

OLATHE EXE     CLEAR     86  67  52 S12       29.87F
6HR MIN TEMP:  86; 6HR MAX TEMP:  91;

SALINA         PTSUNNY   83  67  58 S10       29.84F
6HR MIN TEMP:  76; 6HR MAX TEMP:  84;

TOPEKA BILLARD PTSUNNY   90  62  39 S6        29.82F
6HR MIN TEMP:  90; 6HR MAX TEMP:  95;

TOPEKA FORBES  PTSUNNY   89  61  38 S10       29.83F
6HR MIN TEMP:  89; 6HR MAX TEMP:  96;

$$


USA.gov is the U.S. government's official web portal to all federal, state and local government web resources and services.